Preview of NWS' New Version of Forecast
This preview is not operational and should not be used for support decisions.

Regional Weather Roundup (RWR)

Issued by National Weather Service (NWS)

                            
000
ASUS42 KTBW 210317
RWRFL 
FLORIDA REGIONAL WEATHER ROUNDUP
NATIONAL WEATHER SERVICE TAMPA BAY RUSKIN FL
1100 PM EDT SAT JUL 20 2019

NOTE: "FAIR" INDICATES FEW OR NO CLOUDS BELOW 12,000 FEET WITH NO
SIGNIFICANT WEATHER AND/OR OBSTRUCTIONS TO VISIBILITY.

FLZ001>010-012>015-112-114-115-210400-
PANHANDLE FLORIDA
  
CITY           SKY/WX    TMP DP  RH WIND       PRES   REMARKS
PENSACOLA      FAIR      77  75  93 CALM      30.03S                  
PENSACOLA NAS  FAIR      76  74  93 CALM      30.03R                  
MILTON NAS     FAIR      73  72  96 CALM        N/A                   
CRESTVIEW      FAIR      77  71  82 CALM      30.05S                  
DUKE FIELD     FAIR      76  73  92 S3        30.04R                  
VALPARAISO     FAIR      78  73  83 CALM      30.03S                  
MARY ESTHER    PTCLDY    77  73  87 CALM      30.03R                  
TRI COUNTY     FAIR      75  74  96 CALM      30.06R                  
PANAMA CITY    FAIR      75  72  90 CALM      30.04R                  
TYNDALL AFB    FAIR      76  72  87 SE5       30.04R                  
APALACHICOLA   FAIR      77  72  84 CALM      30.05R                  

STATION/POSITION SKY/WX   TEMP    WIND        PRES    WAVE   SWELL
                          AIR SEA DIR/SP/G            HT/PER HT/PER
                          (F)     (DEG/KT/KT) (MB)    (FT/S) (FT/S)
30.1N   87.6W              82 86  130/  2/  2 1016.7R   2/ 4   2/ 4
29.2N   88.2W              82 84  160/  8/  8 1017.6
28.8N   86.0W                 86  130/  6/  8 1017.9R   1/ 5   2/ 5
PANAMA CITY BEAC                  240/  6/  7 1017.6R
TOWER C                    81     170/  4/  5 1018.1R
28.5N   84.5W              83      10/  4/  6 1018.3R   1/ 4

$$
FLZ011-016>038-118-127-128-134-139-239-210400-
NORTH FLORIDA
  
CITY           SKY/WX    TMP DP  RH WIND       PRES   REMARKS
MARIANNA       FAIR      78  75  90 SE5       30.04R                  
TALLAHASSEE    FAIR      76  74  93 NW3       30.06R                  
PERRY          FAIR      78  77  96 CALM      30.08R                  
LIVE OAK       CLEAR     77  79 100 CALM      30.06S                  
CROSS CITY     FAIR      76  74  92 CALM      30.08S                  
LAKE CITY      FAIR      73  73 100 SE5       30.07S                  
GAINESVILLE    FAIR      73  72  96 CALM      30.10S                  
WILLISTON      FAIR      74  73  98 NW3       30.06F                  
PALATKA        MOCLDY    75  72  88 CALM      30.08S                  
MAYPORT NAS    FAIR      78  69  73 CALM      30.06F                  
JACKSONVILLE   FAIR      73  71  93 NE3       30.05F                  
JAX NAS        MOCLDY    78  72  81 E5        30.07F                  
JAX CECIL      NOT AVBL                                               
FERNANDINA BEA FAIR      73  71  95 CALM      30.06F                  
ST AUGUSTINE   FAIR      79  73  82 SW3       30.08S                  
PALM COAST     FAIR      76  73  91 CALM      30.08R                  

STATION/POSITION SKY/WX   TEMP    WIND        PRES    WAVE   SWELL
                          AIR SEA DIR/SP/G            HT/PER HT/PER
                          (F)     (DEG/KT/KT) (MB)    (FT/S) (FT/S)
SHELL POINT      NOT AVBL
KEATON BEACH               79     100/  8/  9 1018.4R
CEDAR KEY                  81     190/ 17/ 19 1017.6S
FERNANDINA                 78 86   60/  2/  2 1018.9
30.7N   81.3W                 84                N/A     2/ 8
MAYPORT                    77 82   CALM  /  4 1018.5F
31.4N   80.9W              83 84  230/ 19/ 23 1017.6R   3/ 3   2/ 9
ST AUGUSTINE               80 78  220/  3/  3 1018.4R

$$
FLZ040-043>046-052-053-057-058-063-144-210400-
INTERIOR CENTRAL FLORIDA
  
CITY           SKY/WX    TMP DP  RH WIND       PRES   REMARKS
OCALA          FAIR      74  72  93 CALM      30.07S                  
LEESBURG       FAIR      77  73  87 CALM      30.07R                  
SANFORD        FAIR      80  74  81 NE6       30.08R                  
ORLANDO EXEC   FAIR      80  74  81 E7        30.08R                  
ORLANDO INTL   MOCLDY    79  74  84 SE3       30.09R                  
KISSIMMEE      FAIR      79  75  87 E3        30.09R                  
WINTER HAVEN   FAIR      78  74  87 E3        30.09R                  
LAKELAND       FAIR      73  72  94 CALM      30.09R                  
BARTOW         FAIR      75  73  94 CALM      30.07S                  
SEBRING        FAIR      76  74  93 NE6       30.09S                  
OKEECHOBEE     FAIR      73  73 100 NE3       30.08R                  

$$
FLZ041-047-054-059-064-141-147-210400-
EAST CENTRAL FLORIDA
  
CITY           SKY/WX    TMP DP  RH WIND       PRES   REMARKS
DAYTONA BEACH  FAIR      79  77  94 S3        30.08R                  
DELAND         FAIR      77  73  88 E3        30.07S                  
JFK SPACE CTR  CLEAR     80  68  65 SE3       30.08R                  
CAPE CANAVERAL CLEAR     78  57  48 SE7       30.07R                  
PATRICK AFB    FAIR      82  80  94 SE6       30.08R                  
MELBOURNE      FAIR      83  76  79 SE6       30.08R                  
VERO BEACH     FAIR      77  75  93 CALM      30.09R                  
FT PIERCE      FAIR      77  73  87 CALM      30.08R                  
STUART         FAIR      81  73  78 CALM      30.10R                  

STATION/POSITION SKY/WX   TEMP    WIND        PRES    WAVE   SWELL
                          AIR SEA DIR/SP/G            HT/PER HT/PER
                          (F)     (DEG/KT/KT) (MB)    (FT/S) (FT/S)
28.5N   80.2W              83 83  140/  6/  8 1018.5R   2/ 8   2/ 8
28.9N   78.5W              85 86  160/  6/  8 1019.6R   3/ 8   2/ 8
TRIDENT PIER               81 83  110/  3/  5 1020.0R
28.4N   80.5W                 82                N/A     2/ 8
27.5N   80.2W                 83                N/A     1/ 4

$$
FLZ050-056-061-142-242-148-248-149-249-151-251-155-255-
160-260-210400-
WEST CENTRAL FLORIDA
  
CITY           SKY/WX    TMP DP  RH WIND       PRES   REMARKS
CRYSTAL RIVER  FAIR      72  72 100 CALM      30.07R                  
INVERNESS      FAIR      73  73 100 CALM      30.08S                  
BROOKSVILLE    FAIR      74  72  93 NE5       30.07R                  
CLEARWATER AIR FAIR      75  73  94 CALM      30.06R                  
ST PETE CLEARW FAIR      76  74  93 SE3       30.06R                  
TAMPA INTL     MOCLDY    77  73  87 CALM      30.07R                  
TAMPA EXEC     FAIR      73  72  94 CALM      30.08R                  
PLANT CITY     FAIR     N/A N/A N/A MISG      30.10R                  
MACDILL AFB    CLOUDY    75  73  93 CALM      30.06S                  
PETER O KNIGHT CLOUDY    79  77  94 E3        30.07R                  
ST PETERSBURG  FAIR      80  73  79 E9        30.04S                  
SARASOTA       FAIR      74  71  91 E6        30.04R                  
VENICE         FAIR      75  72  88 NE10      30.07R                  

STATION/POSITION SKY/WX   TEMP    WIND        PRES    WAVE   SWELL
                          AIR SEA DIR/SP/G            HT/PER HT/PER
                          (F)     (DEG/KT/KT) (MB)    (FT/S) (FT/S)
27.3N   84.2W                 87                N/A     1/ 4
CLEARWATER BEACH           78 89   90/  5/  9 1017.5R
MIDDLE TAMPA BAY           80     100/  8/ 10 1017.8F
VENICE                     75 87   60/  8/ 11 1017.9R

$$
FLZ066-069-070-075>078-162-262-165-265-210400-
SOUTHWEST FLORIDA AND KEYS
  
CITY           SKY/WX    TMP DP  RH WIND       PRES   REMARKS
PUNTA GORDA    FAIR      74  73  97 NE6       30.08R                  
FT MYERS       FAIR      75  71  87 E5        30.05R                  
SOUTHWEST INTL FAIR      76  73  91 NE7       30.06R                  
MARCO ISLAND   FAIR      78  77  96 MISG      30.05F                  
IMMOKALEE      FAIR      75  73  94 CALM      30.04R                  
MARATHON       FAIR      85  74  69 E7        30.04R                  
KEY WEST NAS   LGT RAIN  81  74  79 E7        30.03R                  
KEY WEST INTL  FAIR      81  72  74 NE7       30.03S                  

STATION/POSITION SKY/WX   TEMP    WIND        PRES    WAVE   SWELL
                          AIR SEA DIR/SP/G            HT/PER HT/PER
                          (F)     (DEG/KT/KT) (MB)    (FT/S) (FT/S)
NAPLES                     79 87              1017.1F
26.0N   85.6W              85 86   90/ 10/ 14 1017.0R   2/ 5   2/ 6
DRY TORTUGAS               85      90/  9/  9 1016.4R
SAND KEY                   84     110/ 16/ 20 1015.5
SOMBRERO KEY               84     120/ 14/ 21 1017.6
LONG KEY                   84                 1016.8

$$
FLZ067-068-071>074-168-172>174-210400-
SOUTHEAST FLORIDA 
  
CITY           SKY/WX    TMP DP  RH WIND       PRES   REMARKS
W PALM BEACH   FAIR      83  74  74 SE3       30.08R                  
BOCA RATON     PTCLDY    79  75  89 CALM      30.07R                  
FT LAUDER-EXEC FAIR      81  73  76 E5        30.06R                  
FT LAUDERDALE  FAIR      83  74  74 E7        30.06R                  
POMPANO BEACH  FAIR      84  74  71 E3        30.06R                  
PEMBROKE PINES FAIR      82  73  74 CALM      30.08R                  
OPA LOCKA      FAIR      83  75  77 E3        30.07R                  
MIAMI          MOCLDY    84  74  71 E6        30.07R                  
WEST KENDALL   FAIR      82  76  81 SE5       30.06R                  
HOMESTEAD      FAIR      82  77  85 CALM      30.05R                  

STATION/POSITION SKY/WX   TEMP    WIND        PRES    WAVE   SWELL
                          AIR SEA DIR/SP/G            HT/PER HT/PER
                          (F)     (DEG/KT/KT) (MB)    (FT/S) (FT/S)
PORT EVERGLADES            84     130/  3/  5 1017.6
VIRGINIA KEY               84 88   80/  5/  7 1017.4R
LAKE WORTH                 83 84  160/  6/  7 1019.2R
FOWEY ROCKS                84 85   90/ 11/ 12 1018.4R
SETTLEMENT POINT           83     130/  6/  7 1018.8R

$$